Location: Blankensee
(53.5126°N, 14.3055°E)
Time: 16:51:49
(UTC+00:00)

Cosmos 1538 Rocket - Pass Details

Date: 08 August 2020
Orbit: 752 x 792 km, 74.0° (Epoch: 19 September)

Event Time Altitude Azimuth Distance (km) Brightness Sun altitude
Rises 00:50:44 0° 329° (NNW) 3,218 7.7 -17.0°
Reaches altitude 10° 00:53:13 10° 323° (NW) 2,288 6.8 -16.9°
Maximum altitude 00:58:01 40° 255° (WSW) 1,106 4.5 -16.6°
Enters shadow 01:00:03 28° 208° (SSW) 1,393 4.7 -16.4°
